Spencer, IA

7:52 PM CST on November 22, 2019 (GMT -0600)
Spencer Municipal

Weather History for KSPW - October, 2019

Change the Weather History Date:

Tuesday, October 22, 2019

  Actual Average Record
Temperature  
Mean Temperature 44 °F -  
Max Temperature 53 °F 62 °F 81 °F (2003)
Min Temperature 35 °F 37 °F 11 °F (1976)
Degree Days  
Heating Degree Days 20    
Moisture  
Dew Point 32 °F    
Average Humidity 67    
Maximum Humidity 82    
Minimum Humidity 40    
Precipitation  
Precipitation 0.02 in - - ()
Sea Level Pressure  
Sea Level Pressure 29.73 in    
Wind  
Wind Speed 25 mph (WNW)    
Max Wind Speed 32 mph    
Max Gust Speed 48 mph    
Visibility 10 miles    
Events Rain    
Averages and records for this station are not official NWS values.
T = Trace of Precipitation, MM = Missing Value Source: NWS Daily Summary

Daily Weather History Graph

Daily Weather History Graph

Search for Another Location

Airport or City:

Astronomy

Oct. 22, 2019 Rise Set
Actual Time 7:42 AM CDT 6:27 PM CDT
Civil Twilight 7:13 AM CDT 6:56 PM CDT
Nautical Twilight 6:40 AM CDT 7:29 PM CDT
Astronomical Twilight 6:07 AM CDT 8:02 PM CDT
Moon 12:40 AM CDT (10/22) 3:49 PM CDT (10/22)
Length of Visible Light 11h 42m
Length of Day
10h 44m
Last Quarter, 37% of the Moon is Illuminated
Oct 22
Last Quarter
Oct 27
New
Nov 4
First Quarter
Nov 12
Full
Nov 19
Last Quarter

Hourly Weather History & Observations

Time (CDT) Temp. Windchill Dew Point Humidity Pressure Visibility Wind Dir Wind Speed Gust Speed Precip Events Conditions
12:53 AM 44.1 °F 34.0 °F 39.0 °F 82% 29.51 in 10.0 mi WNW 29.9 mph 44.9 mph 0.01 in Rain Light Rain
1:53 AM 43.0 °F 32.2 °F 37.9 °F 82% 29.54 in 10.0 mi WNW 32.2 mph 48.3 mph 0.01 in Rain Light Rain
2:53 AM 43.0 °F 32.4 °F 37.0 °F 80% 29.57 in 10.0 mi WNW 31.1 mph 46.0 mph 0.00 in   Overcast
3:53 AM 42.1 °F 31.3 °F 36.0 °F 79% 29.60 in 10.0 mi WNW 29.9 mph 43.7 mph N/A   Overcast
4:53 AM 42.1 °F 31.9 °F 35.1 °F 76% 29.64 in 10.0 mi WNW 26.5 mph 38.0 mph N/A   Overcast
5:53 AM 41.0 °F 29.8 °F 35.1 °F 79% 29.66 in 10.0 mi WNW 29.9 mph 40.3 mph N/A   Overcast
6:53 AM 39.9 °F 30.0 °F 34.0 °F 79% 29.68 in 10.0 mi WNW 21.9 mph 39.1 mph N/A   Overcast
7:53 AM 39.0 °F 27.8 °F 33.1 °F 79% 29.69 in 10.0 mi WNW 26.5 mph 38.0 mph N/A   Mostly Cloudy
8:03 AM 39.0 °F 28.3 °F 33.1 °F 79% 29.67 in 10.0 mi WNW 24.2 mph 39.1 mph N/A   Partly Cloudy
8:53 AM 39.0 °F 28.3 °F 30.9 °F 73% 29.73 in 10.0 mi WNW 24.2 mph 39.1 mph N/A   Clear
9:21 AM 39.0 °F 28.0 °F 30.9 °F 73% 29.72 in 10.0 mi West 25.3 mph 38.0 mph N/A   Mostly Cloudy
9:34 AM 39.0 °F 28.5 °F 30.0 °F 70% 29.72 in 10.0 mi WNW 23.0 mph 34.5 mph N/A   Scattered Clouds
9:53 AM 41.0 °F 31.1 °F 30.0 °F 65% 29.75 in 10.0 mi WNW 23.0 mph 36.8 mph N/A   Partly Cloudy
10:53 AM 45.0 °F 35.4 °F 28.9 °F 53% 29.75 in 10.0 mi WNW 28.8 mph 42.6 mph N/A   Clear
11:53 AM 48.0 °F - 28.9 °F 48% 29.76 in 10.0 mi WNW 28.8 mph 41.4 mph N/A   Clear
12:53 PM 50.0 °F - 28.9 °F 44% 29.76 in 10.0 mi NW 29.9 mph 43.7 mph N/A   Clear
2:53 PM 53.1 °F - 30.9 °F 43% 29.78 in 10.0 mi WNW 27.6 mph 39.1 mph N/A   Scattered Clouds
3:53 PM 51.1 °F - 28.9 °F 43% 29.78 in 10.0 mi WNW 26.5 mph 47.2 mph N/A   Partly Cloudy
4:53 PM 52.0 °F - 28.0 °F 40% 29.80 in 10.0 mi West 26.5 mph 36.8 mph N/A   Partly Cloudy
5:53 PM 48.9 °F - 28.9 °F 46% 29.81 in 10.0 mi WNW 18.4 mph 29.9 mph N/A   Clear
6:53 PM 46.0 °F 40.2 °F 28.9 °F 51% 29.83 in 10.0 mi West 12.7 mph - N/A   Clear
7:53 PM 41.0 °F 35.8 °F 30.0 °F 65% 29.84 in 10.0 mi West 8.1 mph - N/A   Clear
8:53 PM 37.9 °F 32.7 °F 30.0 °F 73% 29.84 in 10.0 mi West 6.9 mph - N/A   Clear
9:53 PM 37.0 °F 31.6 °F 28.9 °F 73% 29.84 in 10.0 mi West 6.9 mph - N/A   Clear
10:53 PM 36.0 °F - 28.9 °F 76% 29.84 in 10.0 mi Calm Calm - N/A   Clear
11:53 PM 35.1 °F 32.2 °F 28.9 °F 78% 29.84 in 10.0 mi WSW 3.5 mph - N/A   Clear